GLOBALSTAR M029 [-]

Last updated on July 6, 2021, 3:36 p.m. UTC

1 25963U 99062C   21186.84896418 -.00000070  00000-0  19481-3 0  9991
2 25963  51.9824  38.2299 0002676 142.9250 280.9542 11.99850559995974
UTC
Height (km)
Latitude
Longitude
Inclination
Orbital Period
UTC large
Height (km)
Speed (km/s)
/
Latitude / Longitude
Inclination (degrees)
Orbital Period (minutes)
Azimuth
Elevation
Range (km)
Doppler Factor
iOS Compass Heading
iOS Angle